DW1980 Weather Reports


Display with metric or nautical units.
time (UTC)temp
F
wind
direction
speed
MPH
gust
MPH
rain 1hr
in
rain 24hr
in
rain mn
in
humidity
%
barometer
mb
20260906150345 69 21 1.0 3.0 0.00 0.04 0.04 87 1016.3
20260906150110 69 38 0.0 3.0 0.00 0.04 0.04 87 1015.9
20260906150051 69 0 0.0 3.0 0.00 0.04 0.04 86 1015.8
20260906145852 69 22 1.0 3.0 0.00 0.04 0.04 87 1016.3
20260906145340 70 108 0.0 2.0 0.00 0.04 0.04 86 1016.3
20260906144910 70 140 1.0 10.0 0.00 0.04 0.04 85 1016.1
20260906144617 69 90 0.0 10.0 0.00 0.04 0.04 84 1015.7
20260906144555 69 0 2.0 10.0 0.00 0.04 0.04 82 1015.6
20260906144359 70 314 3.0 6.0 0.00 0.04 0.04 81 1016.1
20260906143847 70 26 3.0 6.0 0.00 0.04 0.04 83 1016.1
20260906143340 70 355 2.0 8.0 0.00 0.04 0.04 82 1016.1
20260906143119 70 351 2.0 8.0 0.00 0.04 0.04 81 1015.5
20260906143113 70 23 1.0 8.0 0.00 0.04 0.04 82 1015.7
20260906142847 70 360 3.0 8.0 0.00 0.04 0.04 83 1016.1
20260906142340 70 341 3.0 6.0 0.00 0.04 0.04 83 1016.0
20260906141848 69 27 3.0 6.0 0.00 0.04 0.04 83 1016.0
20260906141609 68 304 3.0 8.0 0.00 0.04 0.04 84 1015.5
20260906141551 68 28 2.0 8.0 0.00 0.04 0.04 85 1015.5
20260906141337 68 360 2.0 8.0 0.00 0.04 0.04 85 1016.1
20260906140907 68 347 4.0 8.0 0.00 0.04 0.04 87 1016.0
20260906140357 67 50 3.0 9.0 0.00 0.04 0.04 88 1016.0
20260906140115 67 5 2.0 9.0 0.00 0.04 0.04 87 1015.4
20260906140048 67 0 2.0 9.0 0.00 0.04 0.04 87 1015.4
20260906135842 67 11 3.0 9.0 0.00 0.04 0.04 88 1015.9
20260906135350 67 20 2.0 8.0 0.00 0.04 0.04 89 1015.8
20260906134837 66 15 2.0 6.0 0.00 0.04 0.04 90 1016.0
20260906134622 65 9 2.0 6.0 0.00 0.04 0.04 91 1015.6
20260906134600 65 325 1.0 6.0 0.00 0.04 0.04 90 1015.4
20260906134347 66 345 2.0 6.0 0.00 0.04 0.04 91 1016.0
20260906133837 65 309 2.0 5.0 0.00 0.04 0.04 92 1016.0
20260906133348 65 38 3.0 5.0 0.00 0.04 0.04 92 1015.9
20260906133124 64 355 2.0 5.0 0.00 0.04 0.04 93 1015.5
20260906133057 64 350 1.0 8.0 0.00 0.04 0.04 92 1015.4
20260906132852 65 349 1.0 8.0 0.00 0.04 0.04 93 1016.0
20260906132340 65 360 2.0 8.0 0.00 0.04 0.04 93 1015.9
20260906131852 64 360 1.0 6.0 0.00 0.04 0.04 94 1015.9
20260906131620 64 264 3.0 6.0 0.00 0.04 0.04 94 1015.4
20260906131551 64 10 2.0 5.0 0.00 0.04 0.04 93 1015.2
20260906131342 64 32 2.0 3.0 0.00 0.04 0.04 94 1015.8
20260906130851 64 19 1.0 3.0 0.00 0.04 0.04 94 1015.7
20260906130342 64 330 1.0 3.0 0.00 0.04 0.04 94 1015.7
20260906130108 63 19 1.0 3.0 0.00 0.04 0.04 94 1015.2
20260906130049 63 19 0.0 3.0 0.00 0.04 0.04 94 1015.2
20260906125848 63 65 0.0 3.0 0.00 0.04 0.04 94 1015.6
20260906125338 63 11 1.0 4.0 0.00 0.04 0.04 94 1015.6
20260906124849 63 44 2.0 5.0 0.00 0.04 0.04 94 1015.7
20260906124619 63 23 2.0 5.0 0.00 0.04 0.04 94 1015.3
20260906124555 63 9 2.0 5.0 0.00 0.04 0.04 93 1015.1
20260906124339 63 360 3.0 5.0 0.00 0.04 0.04 94 1015.7
20260906123910 63 17 2.0 4.0 0.00 0.04 0.04 94 1015.6
20260906123341 63 28 1.0 3.0 0.00 0.04 0.04 94 1015.6
20260906123128 63 26 1.0 3.0 0.00 0.04 0.04 94 1015.1
20260906123106 63 21 1.0 3.0 0.00 0.04 0.04 94 1015.1
20260906122848 63 13 1.0 3.0 0.00 0.04 0.04 94 1015.6
20260906122356 63 17 1.0 3.0 0.00 0.04 0.04 94 1015.6
20260906121846 63 26 1.0 3.0 0.00 0.04 0.04 94 1015.6
20260906121615 63 300 1.0 3.0 0.00 0.04 0.04 94 1015.1
20260906121548 63 0 1.0 3.0 0.00 0.04 0.04 94 1015.1
20260906121356 64 304 1.0 3.0 0.00 0.04 0.04 94 1015.6
20260906120845 63 303 1.0 4.0 0.00 0.04 0.04 94 1015.6
20260906120355 63 327 2.0 4.0 0.00 0.04 0.04 94 1015.5
20260906120043 63 342 1.0 4.0 0.00 0.04 0.04 94 1015.0
20260906120004 63 327 2.0 4.0 0.00 0.04 0.04 94 1015.0
20260906115903 63 31 0.0 0.0 0.00 0.04 0.04 94 1015.5
20260906115352 63 26 0.0 0.0 0.00 0.04 0.04 94 1015.4
20260906114844 63 12 0.0 0.0 0.00 0.04 0.04 94 1015.4
20260906114613 63 12 0.0 0.0 0.00 0.04 0.04 94 1014.9
20260906114604 63 0 0.0 0.0 0.00 0.04 0.04 94 1014.8
20260906114335 63 338 0.0 0.0 0.00 0.04 0.04 94 1015.3
20260906113845 63 19 0.0 0.0 0.00 0.04 0.04 94 1015.2
20260906113356 63 24 0.0 0.0 0.00 0.04 0.04 94 1015.2
20260906113054 62 0 0.0 0.0 0.00 0.04 0.04 93 1014.6
20260906113006 62 355 0.0 0.0 0.00 0.04 0.04 94 1014.7
20260906112902 63 355 0.0 0.0 0.00 0.04 0.04 94 1015.1
20260906112351 63 355 0.0 0.0 0.00 0.04 0.04 94 1015.0
20260906111843 63 355 0.0 0.0 0.00 0.04 0.04 94 1014.9
20260906111611 62 355 0.0 0.0 0.00 0.04 0.04 94 1014.5
20260906111549 62 0 0.0 0.0 0.00 0.04 0.04 94 1014.4
20260906111355 63 355 0.0 0.0 0.00 0.04 0.04 94 1015.0
20260906110844 63 5 0.0 0.0 0.00 0.04 0.04 94 1014.9
20260906110341 63 5 0.0 1.0 0.00 0.04 0.04 94 1014.8
20260906110121 62 5 0.0 2.0 0.00 0.04 0.04 94 1014.4
20260906110043 62 0 0.0 2.0 0.00 0.04 0.04 93 1014.4
20260906105847 62 14 0.0 2.0 0.00 0.04 0.04 94 1014.8
20260906105338 62 348 1.0 2.0 0.00 0.04 0.04 94 1014.8
20260906104847 62 34 1.0 3.0 0.00 0.04 0.04 94 1014.7
20260906104609 62 19 0.0 3.0 0.00 0.04 0.04 94 1014.2
20260906104550 62 0 1.0 3.0 0.00 0.04 0.04 93 1014.1
20260906104336 62 16 1.0 3.0 0.00 0.04 0.04 94 1014.6
20260906103849 62 5 1.0 3.0 0.00 0.04 0.04 94 1014.6
20260906103400 62 355 2.0 3.0 0.00 0.04 0.04 94 1014.5
20260906103120 62 351 2.0 3.0 0.00 0.04 0.04 94 1014.0
20260906103049 62 5 1.0 3.0 0.00 0.04 0.04 93 1014.0
20260906102846 62 31 1.0 2.0 0.00 0.04 0.04 94 1014.4
20260906102414 63 360 0.0 1.0 0.00 0.04 0.04 94 1014.1
20260906101843 63 346 0.0 0.0 0.00 0.04 0.04 94 1014.1
20260906101608 62 346 0.0 0.0 0.00 0.04 0.04 94 1013.6
20260906101551 62 0 0.0 0.0 0.00 0.04 0.04 93 1013.7
20260906101353 63 346 0.0 0.0 0.00 0.04 0.04 94 1014.0
20260906100900 63 346 0.0 0.0 0.00 0.04 0.04 94 1014.0
20260906100350 63 346 0.0 1.0 0.00 0.04 0.04 94 1013.9
20260906100113 63 346 0.0 1.0 0.00 0.04 0.04 94 1013.4
20260906100053 63 0 0.0 1.0 0.00 0.04 0.04 93 1013.4
20260906095917 63 346 0.0 1.0 0.00 0.04 0.04 94 1013.9
20260906095344 64 16 0.0 0.0 0.00 0.04 0.04 94 1013.9
20260906094853 64 16 0.0 0.0 0.00 0.04 0.04 94 1014.0
20260906094617 63 16 0.0 1.0 0.00 0.04 0.04 94 1013.5
20260906094602 63 0 0.0 2.0 0.00 0.04 0.04 93 1013.6
20260906094344 64 16 0.0 1.0 0.00 0.04 0.04 94 1014.0
20260906093854 64 16 0.0 3.0 0.00 0.04 0.04 94 1014.0
20260906093407 64 19 0.0 3.0 0.00 0.04 0.04 94 1014.0
20260906093133 63 19 1.0 3.0 0.00 0.04 0.04 94 1013.4
20260906093047 63 19 0.0 3.0 0.00 0.04 0.04 93 1013.5
20260906092851 64 341 0.0 1.0 0.00 0.04 0.04 94 1013.9
20260906092339 64 341 0.0 1.0 0.00 0.04 0.04 94 1013.8
20260906091910 64 341 0.0 1.0 0.00 0.04 0.04 94 1013.8
20260906091613 63 341 0.0 1.0 0.00 0.04 0.04 94 1013.3
20260906091603 63 0 0.0 1.0 0.00 0.04 0.04 93 1013.3
20260906091338 64 342 0.0 1.0 0.00 0.04 0.04 94 1013.7
20260906090848 64 341 0.0 1.0 0.00 0.04 0.04 94 1013.7
20260906090340 64 341 0.0 1.0 0.00 0.04 0.04 94 1013.6
20260906090104 63 342 0.0 0.0 0.00 0.04 0.04 94 1013.0
20260906090054 63 0 0.0 0.0 0.00 0.04 0.04 93 1013.1
20260906085846 64 342 0.0 0.0 0.00 0.04 0.04 94 1013.4
20260906085337 64 341 0.0 1.0 0.00 0.04 0.04 94 1013.4
20260906084847 63 341 0.0 1.0 0.00 0.04 0.04 94 1013.4
20260906084616 63 341 0.0 1.0 0.00 0.04 0.04 94 1013.0
20260906084551 63 0 0.0 1.0 0.00 0.04 0.04 93 1013.1
20260906084337 63 319 0.0 1.0 0.00 0.04 0.04 94 1013.5
20260906083908 63 229 0.0 1.0 0.00 0.04 0.04 94 1013.5
20260906083357 63 229 0.0 1.0 0.00 0.04 0.04 94 1013.5
20260906083102 63 229 0.0 1.0 0.00 0.04 0.04 94 1013.0
20260906083043 63 0 0.0 1.0 0.00 0.04 0.04 93 1013.0
20260906082844 63 229 0.0 1.0 0.00 0.04 0.04 94 1013.4
20260906082354 63 229 0.0 0.0 0.01 0.04 0.04 94 1013.2
20260906081904 64 229 0.0 0.0 0.01 0.04 0.04 94 1013.2
20260906081612 63 229 0.0 0.0 0.01 0.04 0.04 93 1012.7
20260906081551 63 0 0.0 0.0 0.01 0.04 0.04 93 1012.7
20260906081415 64 229 0.0 0.0 0.01 0.04 0.04 93 1013.2
20260906080905 64 229 0.0 0.0 0.04 0.04 0.04 93 1013.2
20260906080356 64 229 0.0 0.0 0.04 0.04 0.04 93 1013.2
20260906080053 63 0 0.0 0.0 0.04 0.04 0.04 93 1012.8
20260906080009 63 229 0.0 0.0 0.04 0.04 0.04 93 1012.8
20260906075904 64 229 0.0 0.0 0.04 0.04 0.04 94 1013.3
20260906075415 64 229 0.0 0.0 0.04 0.04 0.04 94 1013.3
20260906074906 64 229 0.0 1.0 0.04 0.04 0.04 94 1013.3
20260906074615 64 229 0.0 1.0 0.04 0.04 0.04 94 1012.9
20260906074552 64 0 0.0 1.0 0.04 0.04 0.04 93 1012.9
20260906074354 64 229 0.0 1.0 0.04 0.04 0.04 94 1013.3
20260906073844 64 229 0.0 2.0 0.04 0.04 0.04 94 1013.2
20260906073357 64 229 0.0 2.0 0.04 0.04 0.04 93 1013.2
20260906073122 64 229 0.0 2.0 0.04 0.04 0.04 93 1012.8
20260906073048 64 331 0.0 2.0 0.04 0.04 0.04 93 1012.8
20260906072844 64 331 0.0 2.0 0.04 0.04 0.04 93 1013.3
20260906072352 64 331 1.0 2.0 0.03 0.03 0.03 93 1013.2
20260906071905 64 355 0.0 1.0 0.03 0.03 0.03 93 1013.2
20260906071612 64 355 0.0 1.0 0.03 0.03 0.03 93 1012.8
20260906071546 64 0 0.0 1.0 0.03 0.03 0.03 93 1012.9
20260906071354 64 355 0.0 1.0 0.02 0.02 0.02 93 1013.3
20260906070844 64 355 0.0 2.0 0.00 0.00 0.00 93 1013.3
20260906070354 64 355 0.0 2.0 0.00 0.00 0.00 93 1013.3
20260906070119 63 355 0.0 2.0 0.00 0.00 0.00 93 1012.8
20260906070051 63 355 0.0 2.0 0.00 0.00 0.00 93 1012.9
20260906065842 64 355 1.0 2.0 0.00 0.00 0.00 93 1013.2
20260906065353 64 17 0.0 1.0 0.00 0.00 0.00 93 1013.2
20260906064845 64 17 0.0 0.0 0.00 0.00 0.00 93 1013.2
20260906064613 63 17 0.0 1.0 0.00 0.00 0.00 93 1012.8
20260906064543 63 0 0.0 2.0 0.00 0.00 0.00 93 1012.8
20260906064355 64 17 0.0 2.0 0.00 0.00 0.00 93 1013.2
20260906063845 64 17 0.0 2.0 0.00 0.00 0.00 93 1013.2
20260906063358 63 360 1.0 2.0 0.00 0.00 0.00 93 1013.3
20260906063121 63 304 0.0 2.0 0.00 0.00 0.00 93 1012.9
20260906063058 63 0 0.0 2.0 0.00 0.00 0.00 93 1013.0
20260906062843 63 304 0.0 2.0 0.00 0.00 0.00 93 1013.3
20260906062338 63 304 0.0 1.0 0.00 0.00 0.00 93 1013.4
20260906061848 63 304 0.0 1.0 0.00 0.00 0.00 93 1013.4
20260906061612 63 304 0.0 1.0 0.00 0.00 0.00 93 1013.0
20260906061554 63 0 0.0 1.0 0.00 0.00 0.00 93 1013.1
20260906061359 63 304 0.0 1.0 0.00 0.00 0.00 93 1013.4
20260906060848 63 304 0.0 1.0 0.00 0.00 0.00 93 1013.5
20260906060414 63 304 0.0 1.0 0.00 0.00 0.00 93 1013.5
20260906060117 62 304 0.0 1.0 0.00 0.00 0.00 93 1013.0
20260906060052 62 0 0.0 1.0 0.00 0.00 0.00 92 1013.1
20260906055844 63 304 0.0 1.0 0.00 0.00 0.00 93 1013.4
20260906055355 63 304 0.0 0.0 0.00 0.00 0.00 93 1013.5
20260906054844 63 304 0.0 0.0 0.00 0.00 0.00 93 1013.4
20260906054611 62 304 0.0 0.0 0.00 0.00 0.00 93 1013.0
20260906054556 62 0 0.0 0.0 0.00 0.00 0.00 92 1013.1
20260906054414 63 304 0.0 0.0 0.00 0.00 0.00 93 1013.4
20260906053844 63 304 0.0 0.0 0.00 0.00 0.00 93 1013.5
20260906053355 63 304 0.0 0.0 0.00 0.00 0.00 92 1013.4
20260906053115 62 304 0.0 1.0 0.00 0.00 0.00 92 1013.0
20260906053102 62 0 0.0 1.0 0.00 0.00 0.00 92 1013.2
20260906052842 63 304 0.0 1.0 0.00 0.00 0.00 92 1013.4
20260906052352 63 304 0.0 1.0 0.00 0.00 0.00 92 1013.4
20260906051842 63 304 0.0 1.0 0.00 0.00 0.00 93 1013.4
20260906051609 63 304 0.0 1.0 0.00 0.00 0.00 93 1013.0
20260906051601 63 0 0.0 2.0 0.00 0.00 0.00 92 1013.1
20260906051354 63 304 0.0 2.0 0.00 0.00 0.00 93 1013.4
20260906050845 63 304 0.0 2.0 0.00 0.00 0.00 93 1013.4
20260906050357 63 239 0.0 3.0 0.00 0.00 0.00 92 1013.3
20260906050122 62 239 0.0 3.0 0.00 0.00 0.00 92 1012.9
20260906050057 62 0 1.0 3.0 0.00 0.00 0.00 92 1013.1
20260906045844 63 239 2.0 3.0 0.00 0.00 0.00 92 1013.3
20260906045355 63 333 1.0 3.0 0.00 0.00 0.00 92 1013.4
20260906044844 63 355 0.0 2.0 0.00 0.00 0.00 92 1013.4
20260906044613 62 355 0.0 2.0 0.00 0.00 0.00 92 1012.9
20260906044552 62 0 0.0 2.0 0.00 0.00 0.00 91 1013.1
20260906044355 63 355 1.0 2.0 0.00 0.00 0.00 92 1013.5
20260906043846 63 334 0.0 0.0 0.00 0.00 0.00 92 1013.4
20260906043354 63 334 0.0 0.0 0.00 0.00 0.00 92 1013.4
20260906043118 62 334 0.0 0.0 0.00 0.00 0.00 92 1012.9
20260906043053 62 0 0.0 0.0 0.00 0.00 0.00 91 1013.1
20260906042839 63 334 0.0 0.0 0.00 0.00 0.00 92 1013.4
20260906042412 63 334 0.0 1.0 0.00 0.00 0.00 92 1013.3
20260906041842 63 334 0.0 1.0 0.00 0.00 0.00 92 1013.3
20260906041610 63 334 0.0 1.0 0.00 0.00 0.00 92 1012.9
20260906041558 63 334 0.0 1.0 0.00 0.00 0.00 91 1013.1
20260906041353 63 340 0.0 1.0 0.00 0.00 0.00 92 1013.4
20260906040843 63 18 0.0 1.0 0.00 0.00 0.00 91 1013.4
20260906040355 63 18 0.0 1.0 0.00 0.00 0.00 91 1013.4
20260906040120 63 18 0.0 0.0 0.00 0.00 0.00 91 1012.9
20260906040057 63 0 0.0 0.0 0.00 0.00 0.00 90 1013.1
20260906035842 63 18 0.0 0.0 0.00 0.00 0.00 91 1013.4
20260906035352 63 18 0.0 1.0 0.00 0.00 0.00 91 1013.3
20260906034841 64 18 0.0 1.0 0.00 0.00 0.00 91 1013.3
20260906034609 63 18 0.0 1.0 0.00 0.00 0.00 91 1012.8
20260906034551 63 18 0.0 1.0 0.00 0.00 0.00 90 1013.0
20260906034412 64 18 0.0 0.0 0.00 0.00 0.00 91 1013.2
20260906033841 64 18 0.0 1.0 0.00 0.00 0.00 91 1013.3
20260906033352 64 18 0.0 1.0 0.00 0.00 0.00 91 1013.2
20260906033120 63 18 0.0 1.0 0.00 0.00 0.00 91 1012.8
20260906033100 63 0 0.0 1.0 0.00 0.00 0.00 90 1013.1
20260906032840 64 322 0.0 1.0 0.00 0.00 0.00 91 1013.2
20260906032350 64 322 0.0 1.0 0.00 0.00 0.00 90 1013.1
20260906031844 64 312 0.0 1.0 0.00 0.00 0.00 90 1013.1
20260906031606 64 312 0.0 1.0 0.00 0.00 0.00 90 1012.5
20260906031554 64 312 0.0 2.0 0.00 0.00 0.00 90 1012.9
20260906031351 64 312 0.0 2.0 0.00 0.00 0.00 90 1013.0
20260906030840 65 312 0.0 2.0 0.00 0.00 0.00 90 1013.0
20260906030410 65 321 1.0 2.0 0.00 0.00 0.00 90 1012.9
20260906030106 64 5 0.0 0.0 0.00 0.00 0.00 90 1012.5
20260906030054 64 0 0.0 0.0 0.00 0.00 0.00 89 1012.8
20260906025852 65 5 0.0 0.0 0.00 0.00 0.00 90 1013.0
20260906025342 65 5 0.0 2.0 0.00 0.00 0.00 90 1013.0
20260906024849 65 5 0.0 2.0 0.00 0.00 0.00 90 1013.0
20260906024611 65 5 0.0 2.0 0.00 0.00 0.00 89 1012.5
20260906024553 65 0 0.0 2.0 0.00 0.00 0.00 89 1012.9
20260906024356 65 46 0.0 2.0 0.00 0.00 0.00 89 1013.0
20260906023843 65 46 0.0 2.0 0.00 0.00 0.00 89 1013.1
20260906023355 65 19 0.0 1.0 0.00 0.00 0.00 89 1013.0
20260906023113 65 19 0.0 1.0 0.00 0.00 0.00 89 1012.4
20260906023056 65 0 0.0 2.0 0.00 0.00 0.00 88 1012.8
20260906022840 65 19 0.0 2.0 0.00 0.00 0.00 89 1012.9
20260906022350 66 10 1.0 2.0 0.00 0.00 0.00 89 1012.9
20260906021839 66 360 1.0 2.0 0.00 0.00 0.00 89 1012.7
20260906021611 65 11 0.0 2.0 0.00 0.00 0.00 88 1012.3
20260906021558 65 0 0.0 2.0 0.00 0.00 0.00 88 1012.7
20260906021410 66 17 0.0 2.0 0.00 0.00 0.00 88 1012.7
20260906020858 66 13 1.0 2.0 0.00 0.00 0.00 88 1012.8
20260906020348 66 355 0.0 2.0 0.00 0.00 0.00 88 1012.8
20260906020107 66 355 0.0 2.0 0.00 0.00 0.00 88 1012.3
20260906020104 66 0 0.0 2.0 0.00 0.00 0.00 88 1012.7
20260906015853 66 355 0.0 2.0 0.00 0.00 0.00 88 1012.7
20260906015341 66 355 0.0 1.0 0.00 0.00 0.00 88 1012.7
20260906014852 66 355 0.0 1.0 0.00 0.00 0.00 88 1012.7
20260906014650 66 355 0.0 2.0 0.00 0.00 0.00 88 1012.3
20260906014543 66 0 0.0 3.0 0.00 0.00 0.00 87 1012.6
20260906014341 66 355 0.0 3.0 0.00 0.00 0.00 88 1012.8
20260906013852 66 355 0.0 3.0 0.00 0.00 0.00 87 1012.7
20260906013343 66 355 1.0 2.0 0.00 0.00 0.00 87 1012.6
20260906013108 66 351 0.0 2.0 0.00 0.00 0.00 87 1012.2
20260906013106 66 0 0.0 2.0 0.00 0.00 0.00 87 1012.5
20260906012850 66 348 0.0 2.0 0.00 0.00 0.00 87 1012.6
20260906012342 66 342 0.0 2.0 0.00 0.00 0.00 87 1012.6
20260906011854 66 14 1.0 2.0 0.00 0.00 0.00 87 1012.6
20260906011606 66 14 0.0 2.0 0.00 0.00 0.00 87 1012.1
20260906011604 66 0 0.0 1.0 0.00 0.00 0.00 86 1012.4
20260906011344 67 14 0.0 1.0 0.00 0.00 0.00 87 1012.6
20260906010855 67 14 0.0 1.0 0.00 0.00 0.00 86 1012.6
20260906010346 67 14 0.0 1.0 0.00 0.00 0.00 86 1012.5
20260906010112 66 30 0.0 1.0 0.00 0.00 0.00 86 1011.9
20260906010051 66 0 0.0 1.0 0.00 0.00 0.00 85 1012.2
20260906005854 67 30 0.0 1.0 0.00 0.00 0.00 86 1012.4
20260906005344 67 33 0.0 1.0 0.00 0.00 0.00 86 1012.3
20260906004853 67 33 0.0 0.0 0.00 0.00 0.00 85 1012.3
20260906004621 67 33 0.0 0.0 0.00 0.00 0.00 85 1011.8
20260906004543 67 0 0.0 0.0 0.00 0.00 0.00 84 1012.0
20260906004343 68 33 0.0 0.0 0.00 0.00 0.00 84 1012.2
20260906003854 68 33 0.0 1.0 0.00 0.00 0.00 84 1012.2
20260906003345 68 33 0.0 1.0 0.00 0.00 0.00 84 1012.2
20260906003116 68 22 0.0 1.0 0.00 0.00 0.00 85 1011.6
20260906003103 68 0 0.0 1.0 0.00 0.00 0.00 84 1011.9
20260906002852 69 22 0.0 1.0 0.00 0.00 0.00 85 1012.1
20260906002341 69 360 0.0 1.0 0.00 0.00 0.00 84 1012.1
20260906001618 69 360 0.0 2.0 0.00 0.00 0.00 82 1011.4
20260906001555 69 0 0.0 2.0 0.00 0.00 0.00 82 1011.7
20260906001342 69 360 1.0 2.0 0.00 0.00 0.00 81 1011.9
20260906000851 69 360 1.0 2.0 0.00 0.00 0.00 81 1011.8
20260906000341 70 328 0.0 2.0 0.00 0.00 0.00 81 1011.8
20260906000124 69 21 0.0 2.0 0.00 0.00 0.00 81 1011.3
20260906000057 69 21 0.0 2.0 0.00 0.00 0.00 80 1011.6
20260905235848 70 21 1.0 2.0 0.00 0.00 0.00 81 1011.7
20260905235356 70 21 1.0 3.0 0.00 0.00 0.00 80 1011.6
20260905234906 71 15 2.0 3.0 0.00 0.00 0.00 81 1011.6
20260905234612 70 17 0.0 2.0 0.00 0.00 0.00 81 1011.1
20260905234545 70 331 0.0 1.0 0.00 0.00 0.00 80 1011.5
20260905234354 71 293 0.0 1.0 0.00 0.00 0.00 81 1011.6
20260905233844 72 286 0.0 1.0 0.00 0.00 0.00 82 1011.6
20260905233353 72 286 0.0 1.0 0.00 0.00 0.00 80 1011.5
20260905233111 71 286 0.0 1.0 0.00 0.00 0.00 79 1011.0
20260905233052 71 0 0.0 1.0 0.00 0.00 0.00 78 1011.4
20260905232837 72 286 0.0 1.0 0.00 0.00 0.00 78 1011.6
20260905232346 72 286 0.0 2.0 0.00 0.00 0.00 77 1011.5
20260905231854 73 286 1.0 4.0 0.00 0.00 0.00 76 1011.4
20260905231618 72 314 0.0 4.0 0.00 0.00 0.00 76 1011.0
20260905231555 72 314 0.0 4.0 0.00 0.00 0.00 75 1011.3
20260905231343 73 320 1.0 4.0 0.00 0.00 0.00 76 1011.4
20260905230851 73 17 0.0 3.0 0.00 0.00 0.00 80 1011.4
20260905230359 74 355 0.0 3.0 0.00 0.00 0.00 76 1011.4
20260905230054 74 331 0.0 3.0 0.00 0.00 0.00 76 1011.2
20260905230007 74 331 0.0 3.0 0.00 0.00 0.00 78 1010.9
20260905225906 74 332 0.0 3.0 0.00 0.00 0.00 77 1011.3
20260905225335 75 313 0.0 2.0 0.00 0.00 0.00 78 1011.2
20260905224847 75 332 0.0 5.0 0.00 0.00 0.00 77 1011.1
20260905224615 75 332 0.0 5.0 0.00 0.00 0.00 74 1010.6
20260905224550 75 0 0.0 5.0 0.00 0.00 0.00 71 1011.0
20260905224336 75 331 1.0 5.0 0.00 0.00 0.00 70 1011.1
20260905223847 76 331 1.0 4.0 0.00 0.00 0.00 70 1011.1
20260905223357 76 10 1.0 4.0 0.00 0.00 0.00 67 1011.0
20260905223102 76 13 1.0 6.0 0.00 0.00 0.00 70 1010.6
20260905223054 76 352 1.0 8.0 0.00 0.00 0.00 67 1010.8
20260905222844 76 315 1.0 8.0 0.00 0.00 0.00 66 1011.0
20260905222354 76 327 2.0 8.0 0.00 0.00 0.00 66 1011.0
20260905221843 76 22 2.0 6.0 0.00 0.00 0.00 65 1010.9
20260905221617 76 350 2.0 6.0 0.00 0.00 0.00 65 1010.5
20260905221555 76 345 2.0 6.0 0.00 0.00 0.00 64 1010.7
20260905221353 77 338 3.0 6.0 0.00 0.00 0.00 68 1010.9
20260905220844 77 15 1.0 9.0 0.00 0.00 0.00 65 1010.9
20260905220355 77 325 2.0 9.0 0.00 0.00 0.00 64 1010.9
20260905220119 76 360 3.0 9.0 0.00 0.00 0.00 63 1010.4
20260905220048 76 355 4.0 9.0 0.00 0.00 0.00 63 1010.8
20260905215842 77 9 3.0 9.0 0.00 0.00 0.00 63 1010.9
20260905215352 77 319 2.0 11.0 0.00 0.00 0.00 68 1010.8
20260905214844 77 324 2.0 11.0 0.00 0.00 0.00 64 1010.7
20260905214617 77 323 4.0 11.0 0.00 0.00 0.00 65 1010.3
20260905214600 77 360 2.0 9.0 0.00 0.00 0.00 64 1010.6
20260905214354 78 44 2.0 5.0 0.00 0.00 0.00 65 1010.7
20260905213846 78 337 1.0 3.0 0.00 0.00 0.00 65 1010.8
20260905213420 78 257 1.0 8.0 0.00 0.00 0.00 65 1010.8
20260905213106 77 325 1.0 8.0 0.00 0.00 0.00 64 1010.3
20260905213052 77 323 2.0 8.0 0.00 0.00 0.00 63 1010.5
20260905212845 78 27 3.0 8.0 0.00 0.00 0.00 63 1010.8
20260905212354 78 34 3.0 5.0 0.00 0.00 0.00 64 1010.7
20260905211906 78 44 3.0 9.0 0.00 0.00 0.00 63 1010.6
20260905211613 77 360 2.0 9.0 0.00 0.00 0.00 64 1010.1
20260905211551 77 313 2.0 9.0 0.00 0.00 0.00 63 1010.5
20260905211354 78 254 2.0 9.0 0.00 0.00 0.00 64 1010.6
20260905210845 78 336 4.0 10.0 0.00 0.00 0.00 63 1010.6
20260905210357 78 337 3.0 10.0 0.00 0.00 0.00 65 1010.6
20260905205904 78 26 2.0 6.0 0.00 0.00 0.00 66 1010.5
20260905205354 78 294 3.0 6.0 0.00 0.00 0.00 63 1010.6
20260905204905 78 279 2.0 8.0 0.00 0.00 0.00 63 1010.5
20260905204612 78 299 2.0 8.0 0.00 0.00 0.00 62 1010.0
20260905204555 78 279 2.0 8.0 0.00 0.00 0.00 61 1010.3
20260905204355 78 9 2.0 8.0 0.00 0.00 0.00 62 1010.5
20260905203845 78 11 3.0 8.0 0.00 0.00 0.00 62 1010.5
20260905203339 79 300 2.0 9.0 0.00 0.00 0.00 60 1010.4
20260905203120 78 19 3.0 9.0 0.00 0.00 0.00 61 1009.9
20260905203043 78 323 3.0 9.0 0.00 0.00 0.00 60 1010.2
20260905202845 79 344 5.0 9.0 0.00 0.00 0.00 61 1010.3
20260905202354 79 28 3.0 9.0 0.00 0.00 0.00 60 1010.4
20260905201903 79 292 4.0 11.0 0.00 0.00 0.00 64 1010.3
20260905201627 79 298 2.0 11.0 0.00 0.00 0.00 61 1009.9
20260905201545 79 33 2.0 11.0 0.00 0.00 0.00 62 1010.2
20260905201350 80 317 3.0 11.0 0.00 0.00 0.00 61 1010.4
20260905200839 80 314 2.0 9.0 0.00 0.00 0.00 62 1010.4
20260905200350 80 360 5.0 9.0 0.00 0.00 0.00 59 1010.5
20260905200108 80 331 3.0 6.0 0.00 0.00 0.00 59 1010.0
20260905200056 80 314 2.0 9.0 0.00 0.00 0.00 59 1010.2
20260905195854 81 343 2.0 8.0 0.00 0.00 0.00 62 1010.4
20260905195340 81 21 2.0 9.0 0.00 0.00 0.00 58 1010.4
20260905194910 81 13 1.0 11.0 0.00 0.00 0.00 63 1010.5
20260905194557 81 330 5.0 11.0 0.00 0.00 0.00 60 1010.1
20260905194357 82 24 6.0 11.0 0.00 0.00 0.00 57 1010.4
20260905193844 83 116 0.0 8.0 0.00 0.00 0.00 65 1010.4
20260905193413 83 287 3.0 8.0 0.00 0.00 0.00 56 1010.4
20260905193115 82 331 3.0 8.0 0.00 0.00 0.00 56 1009.9
20260905193043 82 27 2.0 8.0 0.00 0.00 0.00 56 1010.2
20260905192857 83 298 2.0 8.0 0.00 0.00 0.00 67 1010.4
20260905192345 82 310 2.0 11.0 0.00 0.00 0.00 58 1010.6
20260905191853 83 303 4.0 11.0 0.00 0.00 0.00 60 1010.6
20260905191614 82 344 3.0 10.0 0.00 0.00 0.00 56 1010.0
20260905191557 82 278 2.0 10.0 0.00 0.00 0.00 56 1010.2
20260905191341 83 19 2.0 10.0 0.00 0.00 0.00 60 1010.6
20260905190849 82 302 2.0 8.0 0.00 0.00 0.00 58 1010.5
20260905190419 82 315 3.0 9.0 0.00 0.00 0.00 56 1010.6
20260905190117 82 15 3.0 9.0 0.00 0.00 0.00 55 1010.1
20260905190052 82 37 4.0 9.0 0.00 0.00 0.00 55 1010.3
20260905185843 82 13 4.0 9.0 0.00 0.00 0.00 58 1010.7
20260905185352 82 282 3.0 8.0 0.00 0.00 0.00 59 1010.6
20260905184902 82 261 3.0 8.0 0.00 0.00 0.00 58 1010.7
20260905184611 82 340 0.0 8.0 0.00 0.00 0.00 59 1010.4
20260905184604 82 355 1.0 6.0 0.00 0.00 0.00 58 1010.2
20260905184349 83 317 2.0 6.0 0.00 0.00 0.00 58 1010.7
20260905183838 82 9 3.0 8.0 0.00 0.00 0.00 58 1010.7
20260905183349 82 298 2.0 7.0 0.00 0.00 0.00 62 1010.7
20260905183117 81 69 1.0 11.0 0.00 0.00 0.00 61 1010.3
20260905183048 81 352 2.0 11.0 0.00 0.00 0.00 61 1010.4
20260905182918 82 18 2.0 11.0 0.00 0.00 0.00 64 1010.8
20260905182343 81 306 5.0 11.0 0.00 0.00 0.00 60 1010.8
20260905181914 80 286 2.0 8.0 0.00 0.00 0.00 65 1010.8
20260905181600 79 355 3.0 8.0 0.00 0.00 0.00 61 1010.7
20260905181503 79 315 3.0 8.0 0.00 0.00 0.00 63 1010.4
20260905181402 80 296 4.0 8.0 0.00 0.00 0.00 62 1011.0
20260905180909 81 332 3.0 8.0 0.00 0.00 0.00 63 1010.9
20260905180358 80 258 3.0 11.0 0.00 0.00 0.00 67 1010.9
20260905180117 79 51 1.0 11.0 0.00 0.00 0.00 66 1010.5
20260905180053 79 27 4.0 12.0 0.00 0.00 0.00 68 1010.8
20260905175842 79 278 4.0 11.0 0.00 0.00 0.00 65 1011.0
20260905175350 80 326 3.0 12.0 0.00 0.00 0.00 62 1011.0
20260905174838 80 275 2.0 11.0 0.00 0.00 0.00 63 1011.1
20260905174607 79 324 2.0 11.0 0.00 0.00 0.00 67 1010.5
20260905174544 79 5 4.0 11.0 0.00 0.00 0.00 67 1010.9
20260905174348 79 287 4.0 11.0 0.00 0.00 0.00 65 1011.0
20260905173840 78 360 2.0 8.0 0.00 0.00 0.00 68 1011.1
20260905173352 79 288 3.0 7.0 0.00 0.00 0.00 66 1011.2
20260905173116 79 34 1.0 5.0 0.00 0.00 0.00 65 1010.7
20260905173106 79 0 2.0 7.0 0.00 0.00 0.00 63 1010.9
20260905172839 80 297 3.0 6.0 0.00 0.00 0.00 64 1011.1
20260905172410 79 98 2.0 12.0 0.00 0.00 0.00 69 1011.1
20260905171858 78 304 5.0 12.0 0.00 0.00 0.00 66 1011.3
20260905171606 78 299 5.0 11.0 0.00 0.00 0.00 67 1010.8
20260905171558 78 41 4.0 11.0 0.00 0.00 0.00 65 1011.1
20260905171347 78 33 4.0 11.0 0.00 0.00 0.00 67 1011.3
20260905170853 78 351 3.0 11.0 0.00 0.00 0.00 69 1011.3
20260905170344 79 281 5.0 11.0 0.00 0.00 0.00 64 1011.3
20260905170109 78 26 3.0 8.0 0.00 0.00 0.00 65 1010.7
20260905170052 78 312 2.0 8.0 0.00 0.00 0.00 64 1011.0
20260905165852 79 11 2.0 6.0 0.00 0.00 0.00 63 1011.2
20260905165341 78 288 3.0 8.0 0.00 0.00 0.00 66 1011.3
20260905164851 79 15 3.0 9.0 0.00 0.00 0.00 63 1011.3
20260905164546 79 340 2.0 13.0 0.00 0.00 0.00 65 1011.1
20260905164501 79 52 2.0 13.0 0.00 0.00 0.00 66 1010.9
20260905164400 79 326 4.0 13.0 0.00 0.00 0.00 65 1011.3
20260905163849 78 339 8.0 13.0 0.00 0.00 0.00 63 1011.4
20260905163340 78 9 5.0 10.0 0.00 0.00 0.00 66 1011.4
20260905163106 78 350 3.0 13.0 0.00 0.00 0.00 66 1010.9
20260905163102 78 46 3.0 13.0 0.00 0.00 0.00 67 1011.1
20260905162846 78 317 4.0 13.0 0.00 0.00 0.00 66 1011.4
20260905162417 78 335 5.0 13.0 0.00 0.00 0.00 66 1011.3
20260905161846 79 328 3.0 11.0 0.00 0.00 0.00 70 1011.2
20260905161615 78 342 4.0 13.0 0.00 0.00 0.00 66 1010.7
20260905161551 78 360 4.0 13.0 0.00 0.00 0.00 68 1011.0
20260905161338 78 9 3.0 13.0 0.00 0.00 0.00 69 1011.3
20260905160909 78 115 7.0 13.0 0.00 0.00 0.00 66 1011.3
20260905160340 78 30 6.0 12.0 0.00 0.00 0.00 68 1011.3
20260905160049 77 61 3.0 15.0 0.00 0.00 0.00 67 1010.9
20260905155907 77 9 4.0 15.0 0.00 0.00 0.00 70 1011.3
20260905155336 77 11 3.0 15.0 0.00 0.00 0.00 70 1011.3
20260905154847 76 323 3.0 13.0 0.00 0.00 0.00 70 1011.3
20260905154620 76 267 5.0 13.0 0.00 0.00 0.00 70 1010.9
20260905154612 76 23 4.0 10.0 0.00 0.00 0.00 68 1011.0
20260905154356 76 346 4.0 9.0 0.00 0.00 0.00 70 1011.4
20260905153844 76 19 4.0 12.0 0.00 0.00 0.00 70 1011.3
20260905153354 77 280 6.0 13.0 0.00 0.00 0.00 68 1011.3
20260905153117 76 347 4.0 13.0 0.00 0.00 0.00 70 1010.8
20260905153051 76 341 2.0 13.0 0.00 0.00 0.00 69 1011.1
20260905152840 77 342 3.0 13.0 0.00 0.00 0.00 70 1011.3
20260905152351 77 37 2.0 9.0 0.00 0.00 0.00 69 1011.3
20260905151840 76 282 4.0 9.0 0.00 0.00 0.00 69 1011.4
20260905151609 75 337 4.0 9.0 0.00 0.00 0.00 69 1011.0
20260905151551 75 268 3.0 9.0 0.00 0.00 0.00 69 1011.1
20260905151349 75 28 3.0 9.0 0.00 0.00 0.00 71 1011.5
20260905150900 74 336 3.0 12.0 0.00 0.00 0.00 76 1011.6